Location: Breux
(46.3269°N, 3.2993°E)
Time: 22:46:56
(UTC+00:00)

Cosmos 841 Rocket - Pass Details

Date: 09 April 2020
Orbit: 747 x 772 km, 74.0° (Epoch: 05 June)

Event Time Altitude Azimuth Distance (km) Brightness Sun altitude
Rises 20:20:56 0° 344° (NNW) 3,258 7.6 -18.8°
Reaches altitude 10° 20:23:33 10° 353° (N) 2,326 6.6 -19.2°
Maximum altitude 20:28:21 34° 59° (ENE) 1,250 4.4 -19.8°
Enters shadow 20:29:28 31° 84° (E) 1,330 4.3 -20.0°
